Погода в Энтеббе

Уганда     0°04′03″N   32°27′39″E
темп.,
°C
ветер,
м/с
пор.,
м/с
влажн.,
%
обл.,
%
осадки,
мм/ч
давл.,
гПа
погр.,
м
28 сентября, вт
вт2800:00+24зсз21645 0.0 1012145
03:00+22зсз227371 0.0 1010137
06:00+21зсз327236 0.0 1011217
09:00+22с337199 0.0 1013246
12:00+24вюв226319 0.0 1013242
15:00+25юв556366 0.0 1009391
18:00+25юв336473 0.0 1008293
21:00+24ссз22685 0.0 101198
29 сентября, ср
ср2900:00+23св557496 0.0 1011227
03:00+22с337290 0.0 1009153
06:00+22с337240 0.0 1011199
09:00+22всв117052 0.2 1014233
12:00+24юв22655 0.0 1013229
15:00+25ююв55655 0.0 1009389
18:00+25юв44685 0.0 1009320
21:00+24ссз226960 0.0 101075
30 сентября, чт
чт3000:00+23ссв56695 0.0 1010208
03:00+22с34728 0.0 1009152
06:00+22с4474100 0.0 1011246
09:00+22ссв227091 0.0 1014289
12:00+24ююв326665 0.0 1012205
15:00+25ююв556391 0.0 1009333
18:00+25ююв2366100 0.0 1009243
21:00+23сз5671100 0.0 1010208
1 октября, пт
пт100:00+22ссв45755 0.0 1010199
03:00+22с67776 0.0 1008230
06:00+21ссв6778100 0.0 1010282
09:00+22зюз117495 0.4 1013218
12:00+23ю117215 0.1 1012181
15:00+25ююв666630 0.1 1008450
18:00+25ю4469100 0.0 1008385
21:00+24сз2269100 0.0 1009158
2 октября, сб
сб200:00+23св777577 0.1 1009354
03:00+20с688596 0.1 1009306
06:00+21ссв798258 0.0 1010309
09:00+21ссв347584 0.0 1012308
12:00+23ююв437291 0.0 1011287
15:00+24ююв666581 0.0 1008357
18:00+25всв116249 0.0 1008418
21:00+24с226895 0.0 1009194